Miscellaneous Local Product
Issued by NWS Hastings, NE

Home | Current Version | Previous Version | Text Only | Print | Product List | Glossary Off
Versions: 1 2 3 4 5 6 7 8 9 10 11 12 13 14 15 16 17 18 19 20 21 22 23 24 25 26 27 28 29 30 31 32 33 34 35 36 37 38 39 40 41 42 43 44 45 46 47 48 49 50

000
AXUS43 KGID 160302
MISGRI

GID CWA HOURLY WEATHER ROUNDUP
NATIONAL WEATHER SERVICE HASTINGS NE
900 PM CST FRI DEC 15 2017

NOTE: "FAIR" INDICATES FEW OR NO CLOUDS BELOW 12,000 FEET WITH NO
SIGNIFICANT WEATHER AND/OR OBSTRUCTIONS TO VISIBILITY.

...SOUTH CENTRAL NEBRASKA...

CITY           SKY/WX    TMP DP  RH WIND       PRES   REMARKS
GRAND ISLAND   CLOUDY    43  21  41 SW14      29.75F
KEARNEY        CLOUDY    44  16  32 SW14      29.77F
HASTINGS       CLOUDY    43  18  36 SW10      29.77F
ORD            CLOUDY    38  24  57 SW12      29.72S WCI  30
YORK           CLOUDY    36  25  64 SW12      29.77F WCI  27
AURORA         CLOUDY    40  21  47 SW15      29.75F WCI  31
LEXINGTON      CLOUDY    40  14  33 SW3       29.76F
HOLDREGE       CLOUDY    41  17  37 SW12      29.78F
HEBRON         PTCLDY    43  22  43 SW13G18   29.81F

...NEBRASKA PANHANDLE...

CITY           SKY/WX    TMP DP  RH WIND       PRES   REMARKS
CHADRON        CLOUDY    38  19  46 N5        29.73R WCI  34
ALLIANCE       CLOUDY    38  15  39 W9        29.74F WCI  31
SCOTTSBLUFF    CLOUDY    50  10  20 W16       29.77F
SIDNEY         CLOUDY    39  12  33 W12       29.81S WCI  32

...WESTERN AND NORTH CENTRAL NEBRASKA...

CITY           SKY/WX    TMP DP  RH WIND       PRES   REMARKS
VALENTINE      PTCLDY    37  25  61 W9        29.69F WCI  30
AINSWORTH      CLOUDY    39  26  60 W9        29.69S WCI  33
ONEILL         CLOUDY    36  29  75 SW9       29.69S WCI  29
BROKEN BOW     CLOUDY    31  22  69 NW3       29.74S
IMPERIAL       CLOUDY    39   9  29 W9        29.79F WCI  33
NORTH PLATTE   CLOUDY    31  18  58 CALM      29.76F
MCCOOK         CLOUDY    41  12  30 SW8       29.80S

...EASTERN NEBRASKA...

CITY           SKY/WX    TMP DP  RH WIND       PRES   REMARKS
NORFOLK        CLOUDY    42  26  53 SW12      29.69F
SO SIOUX CITY  CLOUDY    39  27  62 S6        29.70F WCI  35
TEKAMAH        CLOUDY    36  23  59 S10       29.74F WCI  28
COLUMBUS       CLOUDY    39  25  57 SW5       29.75F
ALBION         CLOUDY    38  27  64 CALM      29.72F
OMAHA EPPLEY   CLOUDY    36  23  59 S9        29.78F WCI  29
OFFUTT AFB     CLOUDY    28  21  74 S6        29.77F WCI  22
MILLARD        CLOUDY    38  26  60 SE5       29.78F WCI  35
LINCOLN        CLOUDY    44  24  45 SW15      29.79S
NEBRASKA CITY  CLEAR     42  25  50 SW15      29.80F
BEATRICE       CLEAR     43  24  46 S15       29.82S
FALLS CITY     CLEAR     42  23  46 S15       29.84F

...NORTHERN KANSAS...

CITY           SKY/WX    TMP DP  RH WIND       PRES   REMARKS
GOODLAND       CLOUDY    40  14  34 SW13      29.83F WCI  32
HILL CITY      CLEAR     44  16  32 SW9       29.84F
NORTON         CLEAR     37   7  28 SW8       29.81S WCI  31
PHILLIPSBURG   CLEAR     43  14  31 SW8       29.82F
HAYS           CLOUDY    39  18  42 SW12      29.87F WCI  32
RUSSELL        CLEAR     41  19  41 S14       29.86F
CONCORDIA      CLEAR     44  21  40 SW18G26   29.84F
SALINA         CLEAR     42  24  49 S15       29.90F
TOPEKA         CLEAR     43  26  51 S13G20    29.93F



USA.gov is the U.S. government's official web portal to all federal, state and local government web resources and services.